Home   Weather   Sherbrooke   Past weeks
Flag for Canada

Past Weather in Sherbrooke, Quebec, Canada — Yesterday and Last 2 Weeks

Now
70 °F

Scattered clouds.


Feels Like: 70 °F
Forecast: N/A
Wind: 8 mph from South

Location: Sherbrooke

Current Time: May 25, 2019 at 4:04:44 pm

Latest Report: May 25, 2019 at 3:00 pm


Visibility: 9 mi

Pressure: 30.06 "Hg

Humidity: 40%

Dew Point: 45 °F

Location of SherbrookeLocation

Past Weather in Sherbrooke — Graph

°F

Sherbrooke Temperature Yesterday

Maximum temperature yesterday: 61 °F (at 7:00 pm)
Minimum temperature yesterday: 48 °F (at 11:00 pm)
Average temperature yesterday: 54 °F

High & Low Weather Summary for the Past Weeks

 TemperatureHumidityPressure
High73 °F (May 20, 1:00 pm)100% (May 10, 5:18 pm)30.25 "Hg (May 10, 5:18 pm)
Low30 °F (May 12, 3:00 am)23% (May 12, 2:00 pm)29.54 "Hg (May 24, 1:51 am)
Average50 °F78%29.88 "Hg
* Reported May 10 3:06 pm — May 25 3:00 pm, Sherbrooke. Weather by CustomWeather, © 2019

Note: Actual official high and low records may vary slightly from our data, if they occured in-between our weather recording intervals... More about our weather records

Advertising

Sherbrooke Weather History for the Previous 24 Hours

Scroll right to see more
 ConditionsComfort  
Time TempWeatherWind HumidityBarometerVisibility
3:00 pm
Sat, May 25
70 °FScattered clouds.8 mph40%30.06 "Hg9 mi
2:00 pm70 °FPassing clouds.9 mph46%30.08 "Hg9 mi
1:00 pm68 °FScattered clouds.8 mph49%30.11 "Hg9 mi
12:00 pm64 °FPassing clouds.5 mph52%30.15 "Hg9 mi
11:00 am63 °FPassing clouds.6 mph64%30.16 "Hg9 mi
10:00 am61 °FPassing clouds.5 mph68%30.17 "Hg9 mi
9:00 am57 °FSunny.2 mph77%30.20 "Hg9 mi
8:00 am50 °FSunny.2 mph88%30.19 "Hg9 mi
7:00 am45 °FScattered clouds.2 mph100%30.20 "Hg9 mi
6:00 am39 °FPassing clouds.2 mph100%30.19 "Hg9 mi
5:00 am39 °FClear.2 mph100%30.18 "Hg9 mi
4:00 am41 °FClear.2 mph100%30.17 "Hg9 mi
3:00 am41 °FClear.2 mph100%30.16 "Hg9 mi
2:00 am43 °FClear.No wind93%30.15 "Hg9 mi
1:00 am43 °FClear.2 mph100%30.15 "Hg9 mi
12:00 am45 °FClear.2 mph100%30.14 "Hg9 mi
11:00 pm
Fri, May 24
48 °FClear.3 mph87%30.14 "Hg9 mi
10:00 pm50 °FClear.2 mph88%30.12 "Hg9 mi
9:00 pm55 °FPassing clouds.2 mph77%30.10 "Hg9 mi
8:00 pm57 °FPartly sunny.2 mph72%30.08 "Hg9 mi
7:00 pm61 °FBroken clouds.No wind55%30.06 "Hg9 mi
6:00 pm59 °FBroken clouds.5 mph63%30.06 "Hg9 mi
5:00 pm59 °FScattered clouds.3 mph59%30.04 "Hg9 mi
4:00 pm59 °FScattered clouds.6 mph68%30.02 "Hg9 mi
Weather by CustomWeather, © 2019

See weather overview